Total_Precipitation_Accumulation
0.52 0.47 0.44 0.51 0.51 0.46 0.43 0.49 0.55 0.59 0.59 0.69 0.83 0.94 1.05 1.20 1.39 1.46 1.52 1.66 1.70 1.71 1.84 1.94 2.01 1.96 1.89 1.97 2.18 2.62 2.59 2.29 2.04 2.02 1.91 1.77 1.71 1.73 1.68 1.80 1.87 1.76 1.70
0.43 0.39 0.38 0.40 0.42 0.43 0.42 0.45 0.56 0.65 0.67 0.73 0.87 1.05 1.30 1.38 1.53 1.74 1.73 1.73 1.78 1.84 1.91 2.12 2.22 2.18 2.17 2.25 2.33 2.64 2.86 2.63 2.42 2.43 2.62 2.38 2.15 1.80 1.52 1.56 1.64 1.68 1.72
0.36 0.30 0.33 0.38 0.38 0.41 0.49 0.52 0.64 0.82 0.99 1.07 1.30 1.62 1.87 1.92 1.85 1.89 1.96 1.96 1.97 2.04 2.00 2.07 2.25 2.27 2.26 2.34 2.56 2.87 3.23 3.23 2.93 2.69 2.90 2.67 2.37 2.25 1.74 1.42 1.45 1.58 1.70
0.44 0.36 0.34 0.38 0.38 0.43 0.57 0.75 0.95 1.24 1.46 1.57 1.74 2.01 2.14 2.17 2.07 2.07 2.08 2.11 2.04 1.97 1.97 2.04 2.20 2.36 2.50 2.64 2.70 2.68 3.13 3.50 3.33 3.09 2.70 2.40 2.26 2.40 2.25 1.76 1.44 1.47 1.53
0.48 0.49 0.48 0.54 0.55 0.66 0.88 1.23 1.51 1.71 1.84 1.87 1.92 2.15 2.30 2.46 2.48 2.35 2.20 2.15 2.16 2.11 2.00 1.99 2.02 2.07 2.19 2.35 2.49 2.56 2.83 3.12 3.33 3.29 3.05 2.74 2.54 2.09 2.09 2.15 1.89 1.61 1.38
0.54 0.65 0.78 0.91 0.98 1.08 1.31 1.55 1.71 1.86 1.84 1.81 1.83 1.96 2.16 2.33 2.35 2.37 2.34 2.25 2.18 2.11 1.97 1.87 1.92 1.94 1.94 2.08 2.21 2.34 2.64 2.87 3.03 3.12 3.03 2.92 2.85 2.52 2.22 2.02 1.98 1.83 1.58
0.63 0.86 1.04 1.18 1.27 1.38 1.50 1.56 1.55 1.64 1.67 1.64 1.66 1.72 1.79 1.82 1.86 1.99 1.93 1.82 1.73 1.68 1.64 1.55 1.57 1.69 1.76 1.92 2.00 1.97 2.06 2.28 2.51 2.71 2.79 2.82 2.70 2.61 2.52 2.35 2.11 1.85 1.52
0.90 1.04 1.15 1.27 1.32 1.45 1.52 1.49 1.45 1.43 1.37 1.33 1.40 1.43 1.45 1.51 1.50 1.49 1.47 1.39 1.35 1.33 1.28 1.27 1.27 1.32 1.39 1.59 1.81 1.83 1.86 1.95 2.05 2.14 2.44 2.63 2.60 2.60 2.38 2.26 2.30 2.04 1.70
1.15 1.33 1.33 1.26 1.22 1.28 1.36 1.34 1.28 1.23 1.14 1.07 1.12 1.19 1.30 1.29 1.22 1.16 1.11 1.12 1.04 1.05 1.03 1.07 1.16 1.21 1.20 1.29 1.44 1.64 1.71 1.79 1.88 1.88 2.06 2.24 2.34 2.33 2.16 2.19 2.28 2.19 1.88
1.25 1.53 1.64 1.52 1.28 1.12 1.15 1.12 1.11 1.16 1.16 1.12 1.12 1.11 1.05 0.98 0.94 0.93 0.86 0.86 0.91 0.93 0.94 0.93 0.99 1.06 1.09 1.17 1.29 1.33 1.43 1.54 1.72 1.89 2.02 2.06 2.11 2.18 2.09 2.08 2.19 2.17 1.99
1.46 1.59 1.62 1.49 1.34 1.07 1.01 1.00 1.00 1.06 1.14 1.09 1.11 1.09 0.98 0.85 0.80 0.75 0.69 0.70 0.74 0.78 0.78 0.83 0.93 0.96 0.98 1.03 1.03 1.07 1.12 1.21 1.34 1.40 1.55 1.78 1.98 2.07 2.07 2.12 2.18 2.19 2.04
1.16 1.17 1.27 1.30 1.22 1.07 1.00 1.06 1.11 1.13 1.10 1.07 1.05 1.01 0.94 0.85 0.83 0.76 0.67 0.69 0.74 0.75 0.75 0.82 0.87 0.88 0.94 0.97 0.94 0.96 1.02 1.13 1.23 1.25 1.28 1.40 1.67 1.83 1.95 2.04 2.07 2.13 2.08
0.91 0.86 0.97 1.13 1.07 0.99 1.01 1.10 1.23 1.26 1.20 1.10 1.02 1.01 0.96 0.94 0.96 0.83 0.74 0.74 0.81 0.92 0.93 0.91 0.94 0.90 0.93 0.94 0.93 0.96 1.00 1.02 1.08 1.13 1.14 1.25 1.38 1.53 1.63 1.74 1.85 1.92 2.03
0.76 0.73 0.68 0.74 0.77 0.79 0.79 0.91 1.17 1.40 1.37 1.25 1.13 1.08 1.08 1.11 1.08 0.93 0.85 0.79 0.79 0.82 0.83 0.90 0.96 1.02 1.07 1.05 1.00 1.02 1.03 0.98 1.00 1.05 1.12 1.16 1.20 1.37 1.60 1.70 1.78 1.82 1.93
0.59 0.54 0.50 0.49 0.49 0.54 0.63 0.76 1.07 1.29 1.29 1.26 1.11 1.02 0.99 0.97 0.93 0.93 0.98 0.91 0.79 0.73 0.71 0.79 0.86 0.95 1.04 1.09 1.09 0.96 0.87 0.89 0.94 0.94 0.93 1.02 1.13 1.23 1.44 1.55 1.78 1.82 1.95
0.53 0.51 0.46 0.41 0.37 0.37 0.44 0.56 0.76 0.96 1.05 1.07 1.00 0.89 0.89 0.86 0.78 0.82 0.94 0.97 0.84 0.76 0.72 0.71 0.68 0.71 0.75 0.95 0.95 0.83 0.72 0.76 0.88 0.94 0.93 0.93 1.00 1.07 1.14 1.20 1.44 1.64 1.80
0.52 0.53 0.51 0.47 0.43 0.41 0.42 0.45 0.53 0.67 0.77 0.81 0.78 0.68 0.70 0.83 0.86 0.90 0.89 0.81 0.72 0.74 0.73 0.65 0.58 0.58 0.64 0.70 0.67 0.72 0.70 0.71 0.78 0.87 0.96 1.01 0.98 1.05 1.13 1.15 1.24 1.34 1.41
0.51 0.50 0.49 0.43 0.42 0.42 0.43 0.48 0.49 0.52 0.56 0.55 0.54 0.50 0.57 0.74 0.78 0.74 0.71 0.65 0.63 0.67 0.72 0.65 0.60 0.63 0.64 0.67 0.69 0.71 0.69 0.79 0.87 0.87 0.87 1.00 1.05 1.09 1.25 1.25 1.34 1.28 1.20
0.29 0.31 0.35 0.32 0.30 0.31 0.34 0.36 0.35 0.39 0.39 0.38 0.39 0.46 0.49 0.51 0.52 0.50 0.51 0.56 0.61 0.62 0.57 0.60 0.73 0.72 0.73 0.84 0.77 0.67 0.71 0.83 0.90 0.85 0.86 0.98 1.06 1.24 1.36 1.38 1.39 1.29 1.23
0.16 0.22 0.32 0.35 0.29 0.29 0.33 0.32 0.33 0.36 0.36 0.36 0.40 0.43 0.47 0.50 0.49 0.49 0.49 0.52 0.56 0.61 0.61 0.64 0.76 0.80 0.81 0.85 0.72 0.69 0.76 0.86 0.93 0.91 0.89 1.10 1.08 1.20 1.25 1.30 1.42 1.43 1.32
0.16 0.20 0.26 0.33 0.31 0.30 0.31 0.31 0.32 0.35 0.41 0.43 0.42 0.42 0.45 0.49 0.53 0.54 0.53 0.52 0.53 0.57 0.63 0.65 0.68 0.67 0.64 0.63 0.64 0.66 0.69 0.78 0.87 0.86 0.86 0.82 0.98 1.02 1.12 1.23 1.28 1.52 1.45
0.14 0.17 0.21 0.30 0.32 0.33 0.34 0.37 0.36 0.37 0.42 0.45 0.43 0.43 0.47 0.49 0.52 0.59 0.58 0.56 0.57 0.56 0.57 0.62 0.67 0.68 0.61 0.58 0.57 0.61 0.67 0.77 0.77 0.74 0.78 0.78 0.89 0.92 0.99 1.00 1.17 1.40 1.39
0.15 0.17 0.19 0.26 0.32 0.35 0.39 0.41 0.40 0.39 0.41 0.42 0.46 0.48 0.50 0.49 0.48 0.52 0.55 0.56 0.57 0.57 0.58 0.61 0.66 0.66 0.64 0.64 0.67 0.65 0.70 0.72 0.64 0.59 0.75 0.82 0.89 0.85 0.81 0.95 1.16 1.21 1.24
0.10 0.13 0.15 0.20 0.29 0.35 0.37 0.43 0.44 0.44 0.45 0.47 0.51 0.54 0.55 0.54 0.52 0.53 0.57 0.60 0.60 0.60 0.58 0.59 0.66 0.70 0.70 0.67 0.63 0.61 0.62 0.62 0.59 0.61 0.79 0.94 0.97 0.90 0.85 0.92 1.05 1.09 1.21
0.14 0.13 0.14 0.17 0.23 0.30 0.34 0.41 0.45 0.49 0.48 0.49 0.55 0.60 0.60 0.59 0.59 0.60 0.60 0.60 0.59 0.62 0.60 0.61 0.65 0.67 0.65 0.67 0.71 0.67 0.64 0.63 0.65 0.74 0.91 1.05 1.06 1.06 0.99 0.99 1.07 1.06 1.04
0.14 0.15 0.15 0.16 0.18 0.22 0.26 0.32 0.36 0.43 0.49 0.52 0.52 0.52 0.58 0.61 0.58 0.57 0.57 0.60 0.61 0.65 0.62 0.59 0.62 0.63 0.64 0.69 0.71 0.72 0.72 0.70 0.81 0.96 1.10 1.21 1.28 1.29 1.25 1.21 1.16 1.06 1.02